Weather History for Mobile, AL

Change the Weather History Date:

Saturday, December 29, 2012

  Actual Average Record
Temperature  
Mean Temperature 44 °F 51 °F  
Max Temperature 54 °F 61 °F 78 °F (1974)
Min Temperature 33 °F 41 °F 16 °F (1894)
Degree Days  
Heating Degree Days 21 15  
Month to date heating degree days 246 375  
Since 1 July heating degree days 559 633  
Cooling Degree Days 0 0  
Month to date cooling degree days 15 8  
Year to date cooling degree days 2712 2511  
Moisture  
Dew Point 34 °F    
Average Humidity 70    
Maximum Humidity 89    
Minimum Humidity 50    
Precipitation  
Precipitation 0.00 in 0.17 in 1.97 in (1914)
Month to date precipitation 3.48 4.73  
Year to date precipitation 69.10 65.82  
Snow  
Snow 0.00 in 0.00 in 0.00 in (2001)
Month to date snowfall 0.0 0.0  
Since 1 July snowfall 0.0 0.0  
Snow Depth 0.00 in    
Sea Level Pressure  
Sea Level Pressure 30.17 in    
Wind  
Wind Speed 12 mph (NW)    
Max Wind Speed 22 mph    
Max Gust Speed 29 mph    
Visibility 10 miles    
Events      
T = Trace of Precipitation, MM = Missing Value Source: NWS Daily Summary

Daily Weather History Graph

Daily Weather History Graph

Search for Another Location

Airport:

Trip Planner

Search our weather history database for the weather conditions in past years. The results will help you decide how hot, cold, wet, or windy it might be!

Date:

Astronomy

Dec. 29, 2012 Rise Set
Actual Time 6:49 AM CST 5:00 PM CST
Civil Twilight 6:23 AM CST 5:27 PM CST
Nautical Twilight 5:53 AM CST 5:57 PM CST
Astronomical Twilight 5:23 AM CST 6:26 PM CST
Moon 6:26 PM CST (12/29) 7:28 AM CST (12/29)
Length of Visible Light 11h 04m
Length of Day
10h 11m
Full, 98% of the Moon is Illuminated
Dec 29
Full
Jan 4
Last Quarter
Jan 11
New
Jan 18
First Quarter
Jan 26
Full

Hourly Weather History & Observations

Time (CST) Temp. Windchill Dew Point Humidity Pressure Visibility Wind Dir Wind Speed Gust Speed Precip Events Conditions
12:56 AM 52.0 °F - 48.9 °F 89% 29.90 in 8.0 mi NW 16.1 mph 23.0 mph N/A   Mostly Cloudy
1:09 AM 51.8 °F - 46.4 °F 82% 29.92 in 10.0 mi NW 11.5 mph 28.8 mph N/A   Overcast
1:56 AM 48.0 °F - 44.1 °F 86% 29.94 in 10.0 mi WNW 13.8 mph 24.2 mph N/A   Overcast
2:56 AM 46.0 °F 39.9 °F 39.9 °F 79% 29.96 in 10.0 mi NNW 13.8 mph 19.6 mph N/A   Overcast
3:41 AM 46.4 °F 40.7 °F 39.2 °F 76% 29.98 in 10.0 mi NW 12.7 mph 23.0 mph N/A   Overcast
3:56 AM 45.0 °F 38.2 °F 39.9 °F 82% 29.99 in 9.0 mi NNW 15.0 mph 21.9 mph N/A   Overcast
4:56 AM 45.0 °F 38.5 °F 39.0 °F 80% 30.01 in 10.0 mi NW 13.8 mph 21.9 mph N/A   Overcast
5:56 AM 43.0 °F 34.2 °F 37.9 °F 82% 30.08 in 10.0 mi NNW 20.7 mph 25.3 mph N/A   Overcast
6:18 AM 42.8 °F 35.4 °F 35.6 °F 76% 30.09 in 10.0 mi NW 15.0 mph 25.3 mph N/A   Overcast
6:56 AM 42.1 °F 34.5 °F 35.1 °F 76% 30.11 in 10.0 mi NW 15.0 mph 25.3 mph N/A   Overcast
7:56 AM 42.1 °F 34.5 °F 35.1 °F 76% 30.14 in 10.0 mi NNW 15.0 mph 23.0 mph N/A   Overcast
8:56 AM 42.1 °F 34.9 °F 33.1 °F 70% 30.17 in 10.0 mi NW 13.8 mph - N/A   Overcast
9:56 AM 43.0 °F 37.2 °F 33.1 °F 68% 30.20 in 10.0 mi WNW 10.4 mph 21.9 mph N/A   Overcast
10:56 AM 44.1 °F 37.7 °F 33.1 °F 65% 30.20 in 10.0 mi NW 12.7 mph 20.7 mph N/A   Mostly Cloudy
11:56 AM 46.0 °F 41.0 °F 34.0 °F 63% 30.19 in 10.0 mi NW 10.4 mph 18.4 mph N/A   Mostly Cloudy
12:44 PM 48.2 °F - 32.0 °F 54% 30.17 in 10.0 mi WNW 12.7 mph 20.7 mph N/A   Mostly Cloudy
12:56 PM 48.9 °F - 32.0 °F 52% 30.17 in 10.0 mi NW 13.8 mph 20.7 mph N/A   Mostly Cloudy
1:56 PM 48.9 °F - 33.1 °F 54% 30.18 in 10.0 mi NNW 11.5 mph 20.7 mph N/A   Scattered Clouds
2:56 PM 48.0 °F - 30.9 °F 52% 30.19 in 10.0 mi WNW 10.4 mph 20.7 mph N/A   Mostly Cloudy
3:56 PM 46.9 °F - 30.0 °F 52% 30.21 in 10.0 mi NNW 16.1 mph 19.6 mph N/A   Scattered Clouds
4:56 PM 45.0 °F 39.7 °F 30.0 °F 56% 30.23 in 10.0 mi NW 10.4 mph - N/A   Scattered Clouds
5:56 PM 42.1 °F 38.4 °F 28.9 °F 60% 30.27 in 10.0 mi NW 5.8 mph - N/A   Scattered Clouds
6:56 PM 41.0 °F 38.0 °F 30.0 °F 65% 30.29 in 10.0 mi NW 4.6 mph - N/A   Scattered Clouds
7:56 PM 39.0 °F 34.8 °F 30.0 °F 70% 30.34 in 10.0 mi NW 5.8 mph - N/A   Scattered Clouds
8:56 PM 37.9 °F 30.9 °F 28.9 °F 70% 30.35 in 10.0 mi North 10.4 mph - N/A   Scattered Clouds
9:56 PM 36.0 °F 29.6 °F 28.0 °F 73% 30.38 in 10.0 mi NNW 8.1 mph - N/A   Scattered Clouds
10:56 PM 35.1 °F 29.3 °F 28.0 °F 76% 30.39 in 10.0 mi NNW 6.9 mph - N/A   Partly Cloudy
11:56 PM 33.1 °F 27.7 °F 27.0 °F 78% 30.39 in 10.0 mi NNW 5.8 mph - N/A   Partly Cloudy